EW7144 Weather Reports


time (UTC)temp
C
wind
direction
speed
KPH
gust
KPH
rain 1hr
cm
rain 24hr
cm
rain mn
cm
humidity
%
barometer
mb
20260831195904 8 202 9.7 24.1 0.00 0.05 0.00 78 1011.8
20260831195405 8 205 8.0 29.0 0.00 0.05 0.00 78 1011.9
20260831194905 8 219 8.0 20.9 0.00 0.05 0.00 78 1011.8
20260831194404 8 271 8.0 19.3 0.00 0.05 0.00 78 1011.7
20260831193905 8 220 11.3 25.7 0.00 0.05 0.00 77 1011.7
20260831192904 8 251 9.7 24.1 0.00 0.05 0.00 77 1011.6
20260831192404 8 212 4.8 19.3 0.00 0.05 0.00 77 1011.6
20260831191905 8 308 6.4 19.3 0.00 0.05 0.00 77 1011.4
20260831191404 7 205 9.7 22.5 0.00 0.05 0.00 77 1011.3
20260831185904 7 289 6.4 19.3 0.00 0.05 0.00 76 1010.8
20260831185405 7 331 4.8 11.3 0.00 0.05 0.00 76 1010.7
20260831184905 8 218 4.8 16.1 0.00 0.05 0.00 75 1010.5
20260831184405 8 250 9.7 22.5 0.00 0.05 0.00 75 1010.6
20260831183905 8 199 12.9 29.0 0.00 0.05 0.00 75 1010.6
20260831183405 8 208 11.3 25.7 0.00 0.05 0.00 75 1010.6
20260831182905 7 217 9.7 27.4 0.00 0.05 0.00 76 1010.2
20260831182404 7 203 14.5 32.2 0.00 0.05 0.00 76 1010.2
20260831181404 7 218 11.3 22.5 0.00 0.05 0.00 76 1010.1
20260831180904 7 212 9.7 27.4 0.00 0.05 0.00 77 1010.0
20260831180405 7 220 9.7 24.1 0.00 0.05 0.00 77 1009.8
20260831175904 7 235 11.3 25.7 0.00 0.05 0.00 78 1009.7
20260831175405 7 210 8.0 24.1 0.00 0.05 0.00 78 1009.7
20260831174904 7 247 8.0 20.9 0.00 0.05 0.00 78 1009.8
20260831174404 7 216 9.7 19.3 0.00 0.05 0.00 78 1009.9
20260831173904 7 227 8.0 19.3 0.00 0.05 0.00 78 1009.7
20260831173405 7 36 6.4 19.3 0.00 0.05 0.00 78 1009.7
20260831172905 7 215 8.0 20.9 0.00 0.05 0.00 78 1009.7
20260831172404 7 263 8.0 22.5 0.00 0.05 0.00 78 1009.6
20260831171904 7 290 8.0 19.3 0.00 0.05 0.00 78 1009.6
20260831171405 7 254 8.0 19.3 0.00 0.05 0.00 78 1009.5
20260831170905 7 232 6.4 19.3 0.00 0.05 0.00 79 1009.5
20260831170404 7 206 9.7 19.3 0.00 0.05 0.00 79 1009.5
20260831165904 7 199 9.7 25.7 0.00 0.05 0.00 79 1009.4
20260831165405 7 227 8.0 19.3 0.00 0.05 0.00 79 1009.2
20260831164904 7 230 9.7 25.7 0.00 0.05 0.00 79 1009.3
20260831163904 7 233 11.3 27.4 0.00 0.05 0.00 80 1009.2
20260831162904 7 201 12.9 32.2 0.00 0.05 0.00 81 1009.0
20260831162405 7 223 8.0 27.4 0.00 0.05 0.00 81 1009.0
20260831161904 7 215 8.0 22.5 0.00 0.05 0.00 81 1009.1
20260831160904 7 264 9.7 20.9 0.00 0.05 0.00 81 1009.0
20260831160405 7 260 8.0 22.5 0.00 0.05 0.00 82 1008.9
20260831154904 7 250 3.2 19.3 0.00 0.05 0.00 82 1008.8
20260831154405 7 215 11.3 22.5 0.00 0.05 0.00 82 1008.8
20260831153905 7 198 11.3 32.2 0.00 0.05 0.00 82 1008.7
20260831153404 7 214 12.9 25.7 0.00 0.05 0.00 81 1008.7
20260831152904 8 219 12.9 40.2 0.00 0.05 0.00 80 1008.7
20260831152404 8 260 17.7 46.7 0.00 0.05 0.00 77 1008.6
20260831151904 8 207 11.3 29.0 0.00 0.05 0.00 75 1008.8
20260831151404 8 238 9.7 25.7 0.00 0.05 0.00 76 1008.5
20260831150905 8 237 14.5 29.0 0.00 0.05 0.00 76 1008.5
20260831150405 8 241 12.9 32.2 0.00 0.05 0.00 76 1008.4
20260831145904 8 206 11.3 27.4 0.00 0.05 0.00 76 1008.5
20260831145405 8 227 9.7 32.2 0.00 0.05 0.00 76 1008.5
20260831144905 8 195 14.5 32.2 0.00 0.05 0.00 76 1008.5
20260831143905 8 186 11.3 29.0 0.00 0.05 0.00 76 1008.5
20260831142904 8 237 14.5 29.0 0.00 0.05 0.00 74 1008.4
20260831142404 8 210 14.5 29.0 0.00 0.05 0.00 75 1008.3
20260831141904 8 336 8.0 32.2 0.00 0.05 0.00 75 1008.5
20260831141405 8 218 9.7 25.7 0.00 0.05 0.00 75 1008.4
20260831140905 8 202 11.3 24.1 0.00 0.05 0.00 75 1008.6
20260831140404 8 158 8.0 29.0 0.00 0.05 0.00 74 1008.6
20260831135905 8 205 12.9 32.2 0.00 0.05 0.00 74 1008.8
20260831135404 8 215 14.5 37.0 0.00 0.05 0.00 74 1008.7
20260831134905 8 206 9.7 27.4 0.00 0.05 0.00 73 1008.4
20260831134404 8 216 12.9 35.4 0.00 0.05 0.00 73 1008.4
20260831133404 8 209 11.3 27.4 0.00 0.05 0.00 73 1008.1
20260831132905 8 220 12.9 25.7 0.00 0.05 0.00 72 1008.0
20260831132404 8 212 14.5 41.8 0.00 0.05 0.00 72 1007.8
20260831130904 8 212 12.9 35.4 0.00 0.05 0.00 70 1007.8
20260831130404 8 188 12.9 27.4 0.00 0.05 0.00 70 1007.6
20260831125904 8 198 16.1 37.0 0.03 0.05 0.00 69 1007.4
20260831124905 9 201 14.5 38.6 0.03 0.05 0.00 69 1007.2
20260831124405 9 214 14.5 37.0 0.03 0.05 0.00 70 1006.9
20260831123404 9 214 17.7 35.4 0.03 0.05 0.00 70 1007.1
20260831122904 9 206 14.5 41.8 0.03 0.05 0.00 71 1007.1
20260831122405 9 300 11.3 32.2 0.03 0.05 0.00 72 1007.0
20260831121905 9 205 14.5 29.0 0.03 0.05 0.00 72 1006.8
20260831121404 9 207 16.1 35.4 0.03 0.05 0.00 73 1006.8
20260831120405 9 201 14.5 25.7 0.03 0.05 0.00 75 1006.8
20260831115904 9 252 11.3 32.2 0.00 0.05 0.03 74 1006.7
20260831115405 9 224 14.5 38.6 0.00 0.05 0.03 74 1006.7
20260831114404 9 201 12.9 37.0 0.00 0.05 0.03 74 1006.7
20260831113904 9 205 11.3 32.2 0.00 0.05 0.03 74 1006.6
20260831113404 9 209 14.5 33.8 0.00 0.05 0.03 74 1006.4
20260831112904 9 236 11.3 41.8 0.00 0.05 0.03 74 1006.3
20260831112404 9 244 11.3 32.2 0.00 0.05 0.03 74 1006.2
20260831111404 9 227 11.3 32.2 0.00 0.05 0.03 75 1006.2
20260831110904 9 182 11.3 25.7 0.00 0.05 0.03 75 1006.2
20260831110409 9 277 16.1 35.4 0.00 0.05 0.03 75 1006.4
20260831105904 9 210 16.1 37.0 0.00 0.05 0.03 76 1006.1
20260831105406 9 201 16.1 27.4 0.00 0.05 0.03 76 1006.0
20260831104405 9 255 16.1 32.2 0.00 0.05 0.03 76 1005.9
20260831103904 9 235 9.7 22.5 0.00 0.05 0.03 76 1005.7
20260831103405 9 211 14.5 37.0 0.00 0.05 0.03 76 1005.8
20260831101404 10 178 9.7 32.2 0.00 0.05 0.03 75 1005.7
20260831100905 10 201 11.3 35.4 0.00 0.05 0.03 74 1005.7
20260831100404 10 193 19.3 32.2 0.00 0.05 0.03 74 1005.5
20260831095904 10 217 19.3 37.0 0.00 0.05 0.03 73 1005.3
20260831095405 10 224 11.3 33.8 0.00 0.05 0.03 74 1005.2
20260831094905 10 215 14.5 32.2 0.00 0.05 0.03 73 1005.1
20260831094404 10 210 20.9 56.3 0.00 0.05 0.03 73 1005.0
20260831093404 10 211 19.3 51.5 0.00 0.05 0.03 72 1004.8
20260831092904 11 193 16.1 37.0 0.00 0.05 0.03 71 1004.7
20260831092408 11 206 27.4 56.3 0.00 0.05 0.03 72 1004.4
20260831091906 11 214 16.1 46.7 0.00 0.05 0.03 71 1004.3
20260831091406 11 255 19.3 37.0 0.00 0.05 0.03 72 1004.1
20260831090905 10 216 20.9 41.8 0.00 0.05 0.03 72 1004.1
20260831090405 10 203 20.9 41.8 0.00 0.05 0.03 73 1004.0
20260831085905 10 304 19.3 41.8 0.00 0.05 0.03 74 1004.0
20260831085405 10 191 16.1 40.2 0.00 0.05 0.03 74 1003.8
20260831084905 10 198 22.5 45.1 0.00 0.05 0.03 74 1003.8
20260831084405 10 223 20.9 51.5 0.00 0.05 0.03 74 1003.7
20260831083404 10 241 19.3 41.8 0.00 0.05 0.03 78 1003.6
20260831082904 10 293 14.5 41.8 0.00 0.05 0.03 79 1003.7
20260831081904 10 218 19.3 51.5 0.03 0.05 0.03 80 1003.6
20260831081408 10 303 19.3 49.9 0.03 0.05 0.03 79 1003.4
20260831080905 10 282 20.9 41.8 0.03 0.05 0.03 78 1003.6
20260831080405 10 244 16.1 41.8 0.03 0.05 0.03 79 1003.5
20260831075904 10 228 20.9 53.1 0.03 0.05 0.03 79 1003.4
20260831074904 10 215 17.7 48.3 0.03 0.05 0.03 80 1003.2
20260831074405 10 215 14.5 40.2 0.03 0.05 0.03 81 1003.1
20260831073405 10 217 17.7 38.6 0.03 0.05 0.03 82 1003.0
20260831072905 10 212 20.9 45.1 0.03 0.05 0.03 81 1002.9
20260831072404 10 221 19.3 41.8 0.03 0.05 0.03 80 1002.9
20260831071905 10 205 20.9 40.2 0.00 0.05 0.00 80 1002.7
20260831071404 10 213 22.5 41.8 0.00 0.05 0.00 81 1002.7
20260831070905 9 235 20.9 56.3 0.00 0.05 0.00 82 1002.7
20260831065404 9 235 20.9 45.1 0.00 0.05 0.00 81 1002.7
20260831064405 10 247 25.7 53.1 0.00 0.05 0.00 79 1002.8
20260831063904 10 222 20.9 48.3 0.00 0.05 0.00 76 1002.8
20260831063404 10 211 14.5 37.0 0.00 0.05 0.00 75 1002.8
20260831062904 10 193 20.9 41.8 0.00 0.05 0.00 75 1002.7
20260831062404 10 225 20.9 41.8 0.00 0.05 0.00 74 1002.5
20260831061905 11 202 19.3 40.2 0.00 0.05 0.00 73 1002.5
20260831061404 11 203 32.2 57.9 0.00 0.05 0.00 72 1002.3
20260831060906 11 212 25.7 53.1 0.00 0.05 0.00 71 1002.5
20260831060405 11 220 25.7 51.5 0.00 0.05 0.00 71 1002.7
20260831055904 11 268 19.3 46.7 0.00 0.05 0.00 71 1002.4
20260831055404 11 202 24.1 46.7 0.00 0.05 0.00 71 1002.1
20260831054904 11 205 22.5 56.3 0.00 0.05 0.00 70 1002.1
20260831054404 11 207 25.7 56.3 0.00 0.05 0.00 70 1001.9
20260831053904 11 210 22.5 45.1 0.00 0.05 0.00 70 1001.7
20260831053404 12 218 24.1 45.1 0.00 0.05 0.00 69 1001.9
20260831052904 12 218 25.7 53.1 0.00 0.05 0.00 69 1001.8
20260831052404 12 219 24.1 53.1 0.00 0.05 0.00 70 1001.9
20260831051904 12 229 22.5 48.3 0.00 0.05 0.00 69 1002.0
20260831051404 12 216 24.1 56.3 0.00 0.05 0.00 69 1001.9
20260831050405 12 212 20.9 49.9 0.00 0.05 0.00 66 1001.9
20260831045904 12 195 29.0 53.1 0.00 0.05 0.00 67 1001.6
20260831045406 12 202 25.7 56.3 0.00 0.05 0.00 68 1001.7
20260831044904 12 198 25.7 46.7 0.00 0.05 0.00 70 1001.6
20260831044405 12 222 25.7 61.2 0.00 0.05 0.00 70 1001.7
20260831043904 12 210 27.4 69.2 0.00 0.05 0.00 71 1001.6
20260831043404 12 206 27.4 53.1 0.00 0.05 0.00 71 1001.4
20260831042904 12 204 27.4 53.1 0.00 0.05 0.00 71 1001.4
20260831042405 12 221 25.7 51.5 0.00 0.05 0.00 71 1001.5
20260831041904 13 231 22.5 40.2 0.00 0.05 0.00 71 1001.3
20260831041404 12 221 22.5 46.7 0.00 0.05 0.00 71 1001.4
20260831040905 12 202 25.7 57.9 0.00 0.05 0.00 70 1001.5
20260831040406 12 266 27.4 57.9 0.00 0.05 0.00 71 1001.3
20260831035905 12 249 25.7 57.9 0.00 0.05 0.00 73 1001.5
20260831035405 12 253 24.1 48.3 0.00 0.05 0.00 74 1001.6
20260831034904 12 221 20.9 37.0 0.00 0.05 0.00 74 1001.4
20260831034404 12 216 20.9 49.9 0.00 0.05 0.00 73 1001.4
20260831033904 12 217 22.5 56.3 0.00 0.05 0.00 73 1001.3
20260831033404 12 224 22.5 69.2 0.00 0.05 0.00 74 1001.4
20260831031404 12 213 22.5 59.5 0.00 0.05 0.00 74 1001.4
20260831030404 12 250 29.0 56.3 0.00 0.05 0.00 76 1001.2
20260831025404 12 216 22.5 62.8 0.00 0.05 0.00 76 1001.4
20260831024904 12 259 27.4 49.9 0.00 0.05 0.00 73 1001.2
20260831024405 13 259 25.7 56.3 0.00 0.05 0.00 69 1001.1
20260831022904 13 234 22.5 56.3 0.00 0.05 0.00 69 1000.7
20260831022404 14 207 27.4 56.3 0.00 0.05 0.00 69 1000.6
20260831021904 13 227 20.9 51.5 0.00 0.05 0.00 68 1000.7
20260831021404 14 218 25.7 48.3 0.00 0.05 0.00 67 1000.4
20260831020904 13 228 25.7 57.9 0.00 0.05 0.00 68 1000.6
20260831020404 13 214 22.5 70.8 0.00 0.05 0.00 69 1000.4
20260831015904 13 209 29.0 56.3 0.00 0.05 0.00 68 1000.5
20260831015404 13 218 27.4 53.1 0.00 0.05 0.00 68 1000.6
20260831014905 13 223 27.4 72.4 0.00 0.05 0.00 67 1000.3
20260831014404 14 213 25.7 56.3 0.00 0.05 0.00 69 1000.5
20260831013904 13 208 25.7 51.5 0.00 0.05 0.00 72 1000.7
20260831013404 13 198 22.5 49.9 0.00 0.05 0.00 73 1000.6
20260831012904 13 321 29.0 62.8 0.00 0.05 0.00 71 1000.3
20260831012405 13 228 29.0 78.9 0.00 0.05 0.00 71 1000.1
20260831011904 13 228 27.4 69.2 0.00 0.05 0.00 71 1000.2
20260831011404 13 213 24.1 53.1 0.00 0.05 0.00 73 1000.3
20260831010904 12 253 20.9 48.3 0.00 0.05 0.00 74 1000.3
20260831010404 12 300 29.0 61.2 0.00 0.05 0.00 76 1000.3
20260831005904 12 201 25.7 62.8 0.00 0.05 0.00 79 1000.5
20260831005405 13 287 25.7 53.1 0.00 0.05 0.00 77 1000.7
20260831004906 13 237 19.3 46.7 0.00 0.05 0.00 77 1000.6
20260831004405 13 274 20.9 41.8 0.00 0.05 0.00 76 1000.4
20260831003904 13 252 19.3 51.5 0.00 0.05 0.00 76 1000.6
20260831003404 13 257 19.3 51.5 0.00 0.05 0.00 76 1000.5
20260831002904 13 211 25.7 62.8 0.00 0.05 0.00 75 1000.5
20260831002405 13 300 25.7 62.8 0.00 0.05 0.00 75 1000.5
20260831001404 13 211 20.9 48.3 0.00 0.05 0.00 76 1001.0
20260831000905 13 270 22.5 49.9 0.00 0.05 0.00 77 1001.1
20260831000406 13 209 25.7 40.2 0.00 0.05 0.00 76 1000.9
20260830235905 13 274 22.5 48.3 0.00 0.05 0.00 76 1000.9
20260830235404 13 247 20.9 45.1 0.00 0.05 0.00 75 1000.7
20260830234904 13 293 29.0 56.3 0.00 0.05 0.00 73 1000.9
20260830234404 13 214 19.3 56.3 0.00 0.05 0.00 74 1000.8
20260830233904 13 304 24.1 46.7 0.00 0.05 0.00 73 1000.9
20260830233405 13 216 20.9 53.1 0.00 0.05 0.00 73 1000.8
20260830232904 13 232 19.3 41.8 0.00 0.05 0.00 73 1000.9
20260830232404 13 256 27.4 62.8 0.00 0.05 0.00 73 1000.9
20260830231904 13 209 22.5 46.7 0.00 0.05 0.00 75 1000.9
20260830231404 13 218 20.9 59.5 0.00 0.05 0.00 76 1000.9
20260830230408 13 265 25.7 53.1 0.00 0.05 0.00 74 1000.8
20260830225905 13 225 24.1 51.5 0.00 0.05 0.00 73 1000.9
20260830225405 13 235 20.9 41.8 0.00 0.05 0.00 73 1000.9
20260830224904 13 244 19.3 40.2 0.00 0.05 0.00 72 1001.0
20260830224404 13 206 25.7 48.3 0.00 0.05 0.00 72 1000.9
20260830223905 13 226 25.7 56.3 0.00 0.05 0.00 72 1001.0
20260830223405 13 207 19.3 57.9 0.00 0.05 0.00 73 1001.1
20260830222904 13 198 29.0 59.5 0.00 0.05 0.00 73 1001.1
20260830222405 13 202 27.4 49.9 0.00 0.05 0.00 75 1000.9
20260830221904 13 231 25.7 45.1 0.00 0.05 0.00 75 1000.8
20260830221405 13 242 27.4 41.8 0.00 0.05 0.00 75 1001.0
20260830220904 13 226 27.4 57.9 0.00 0.05 0.00 75 1000.7
20260830220405 13 248 25.7 61.2 0.00 0.05 0.00 76 1000.6
20260830215904 13 218 25.7 57.9 0.00 0.05 0.00 75 1000.5
20260830215404 12 232 22.5 41.8 0.00 0.05 0.00 75 1000.4
20260830214905 13 203 22.5 41.8 0.00 0.05 0.00 75 1001.0
20260830214404 13 246 19.3 51.5 0.00 0.05 0.00 75 1000.9
20260830213905 13 214 19.3 57.9 0.00 0.05 0.00 74 1001.1
20260830213405 13 299 25.7 59.5 0.00 0.05 0.00 73 1001.0
20260830212904 12 202 22.5 49.9 0.00 0.05 0.00 74 1000.9
20260830212404 12 199 20.9 45.1 0.00 0.05 0.00 75 1001.4
20260830211404 12 213 19.3 40.2 0.00 0.05 0.00 78 1001.3
20260830210904 12 243 14.5 45.1 0.00 0.05 0.00 79 1001.4
20260830210404 12 212 22.5 51.5 0.00 0.05 0.00 79 1001.5
20260830205905 12 210 24.1 53.1 0.00 0.05 0.00 77 1001.5
20260830205404 12 207 19.3 57.9 0.00 0.05 0.00 76 1001.2
20260830204904 12 224 25.7 56.3 0.00 0.05 0.00 76 1001.6
20260830204404 12 211 20.9 59.5 0.00 0.05 0.00 75 1001.5
20260830203904 12 215 14.5 48.3 0.00 0.05 0.00 75 1001.6
20260830203405 12 258 20.9 48.3 0.00 0.05 0.00 75 1001.7
20260830202904 12 199 16.1 48.3 0.00 0.05 0.00 75 1001.6
20260830202405 12 176 19.3 48.3 0.00 0.05 0.00 76 1001.6
20260830201905 12 188 20.9 53.1 0.00 0.05 0.00 77 1001.5
20260830201406 12 210 27.4 57.9 0.00 0.05 0.00 77 1001.5
20260830200905 12 209 22.5 51.5 0.00 0.05 0.00 78 1001.3